Time,TemperatureF,DewpointF,PressureIn,WindDirection,WindDirectionDegrees,WindSpeedMPH,WindSpeedGustMPH,Humidity,HourlyPrecipIn,Conditions,Clouds,dailyrainin,SoftwareType,DateUTC
2013-07-30 00:03:00,68.0,56.0,30.15,SW,234,0.0,4.0,66,0.00,,,0.00,,2013-07-30 04:03:00,
2013-07-30 00:33:00,67.0,57.0,30.15,SW,234,0.0,1.0,71,0.00,,,0.00,,2013-07-30 04:33:00,
2013-07-30 00:43:00,67.0,57.0,30.15,SW,234,0.0,1.0,71,0.00,,,0.00,,2013-07-30 04:43:00,
2013-07-30 01:03:00,63.0,56.0,30.15,SW,234,0.0,4.0,79,0.00,,,0.00,,2013-07-30 05:03:00,
2013-07-30 01:23:00,63.0,56.0,30.15,SW,234,0.0,4.0,79,0.00,,,0.00,,2013-07-30 05:23:00,
2013-07-30 01:33:00,63.0,56.0,30.15,SW,234,0.0,4.0,79,0.00,,,0.00,,2013-07-30 05:33:00,
2013-07-30 01:45:00,63.0,56.0,30.15,SW,234,0.0,4.0,79,0.00,,,0.00,,2013-07-30 05:45:00,
2013-07-30 02:03:00,65.0,56.0,30.15,WSW,244,2.0,5.0,74,0.00,,,0.00,,2013-07-30 06:03:00,
2013-07-30 02:23:00,65.0,56.0,30.15,WSW,244,2.0,5.0,74,0.00,,,0.00,,2013-07-30 06:23:00,
2013-07-30 02:33:00,65.0,56.0,30.15,WSW,244,2.0,5.0,74,0.00,,,0.00,,2013-07-30 06:33:00,
2013-07-30 02:43:00,65.0,56.0,30.15,WSW,244,2.0,5.0,74,0.00,,,0.00,,2013-07-30 06:43:00,
2013-07-30 02:53:00,65.0,56.0,30.15,WSW,244,2.0,5.0,74,0.00,,,0.00,,2013-07-30 06:53:00,
2013-07-30 03:03:00,64.0,56.0,30.16,SW,216,0.0,2.0,76,0.00,,,0.00,,2013-07-30 07:03:00,
2013-07-30 03:23:00,64.0,56.0,30.16,SW,216,0.0,2.0,76,0.00,,,0.00,,2013-07-30 07:23:00,
2013-07-30 03:33:00,64.0,56.0,30.16,SW,216,0.0,2.0,76,0.00,,,0.00,,2013-07-30 07:33:00,
2013-07-30 03:43:00,64.0,56.0,30.16,SW,216,0.0,2.0,76,0.00,,,0.00,,2013-07-30 07:43:00,
2013-07-30 03:53:00,64.0,56.0,30.16,SW,216,0.0,2.0,76,0.00,,,0.00,,2013-07-30 07:53:00,
2013-07-30 04:03:00,62.0,55.0,30.15,SW,216,0.0,3.0,79,0.00,,,0.00,,2013-07-30 08:03:00,
2013-07-30 04:23:00,62.0,55.0,30.15,SW,216,0.0,3.0,79,0.00,,,0.00,,2013-07-30 08:23:00,
2013-07-30 04:33:00,62.0,55.0,30.15,SW,216,0.0,3.0,79,0.00,,,0.00,,2013-07-30 08:33:00,
2013-07-30 04:43:00,62.0,55.0,30.15,SW,216,0.0,3.0,79,0.00,,,0.00,,2013-07-30 08:43:00,
2013-07-30 04:53:00,62.0,55.0,30.15,SW,216,0.0,3.0,79,0.00,,,0.00,,2013-07-30 08:53:00,
2013-07-30 05:03:00,62.0,56.0,30.17,SW,228,0.0,5.0,81,0.00,,,0.00,,2013-07-30 09:03:00,
2013-07-30 05:33:00,62.0,56.0,30.17,SW,228,0.0,5.0,81,0.00,,,0.00,,2013-07-30 09:33:00,
2013-07-30 05:43:00,62.0,56.0,30.17,SW,228,0.0,5.0,81,0.00,,,0.00,,2013-07-30 09:43:00,
2013-07-30 05:53:00,62.0,56.0,30.17,SW,228,0.0,5.0,81,0.00,,,0.00,,2013-07-30 09:53:00,
2013-07-30 06:23:00,60.0,55.0,30.19,West,279,0.0,0.0,85,0.00,,,0.00,,2013-07-30 10:23:00,
2013-07-30 06:33:00,60.0,55.0,30.19,West,279,0.0,0.0,85,0.00,,,0.00,,2013-07-30 10:33:00,
2013-07-30 06:44:00,60.0,55.0,30.19,West,279,0.0,0.0,85,0.00,,,0.00,,2013-07-30 10:44:00,
2013-07-30 06:52:00,60.0,55.0,30.19,West,279,0.0,0.0,85,0.00,,,0.00,,2013-07-30 10:52:00,
2013-07-30 07:02:00,60.0,55.0,30.19,West,279,0.0,0.0,85,0.00,,,0.00,,2013-07-30 11:02:00,
2013-07-30 07:22:00,60.0,56.0,30.19,SW,233,0.0,1.0,86,0.00,,,0.00,,2013-07-30 11:22:00,
2013-07-30 07:33:00,60.0,56.0,30.19,SW,233,0.0,1.0,86,0.00,,,0.00,,2013-07-30 11:33:00,
2013-07-30 07:43:00,60.0,56.0,30.19,SW,233,0.0,1.0,86,0.00,,,0.00,,2013-07-30 11:43:00,
2013-07-30 07:53:00,60.0,56.0,30.19,SW,233,0.0,1.0,86,0.00,,,0.00,,2013-07-30 11:53:00,
2013-07-30 08:22:00,66.0,59.0,30.21,West,279,1.0,4.0,79,0.00,,,0.00,,2013-07-30 12:22:00,
2013-07-30 08:33:00,66.0,59.0,30.21,West,279,1.0,4.0,79,0.00,,,0.00,,2013-07-30 12:33:00,
2013-07-30 08:42:00,66.0,59.0,30.21,West,279,1.0,4.0,79,0.00,,,0.00,,2013-07-30 12:42:00,
2013-07-30 08:53:00,66.0,59.0,30.21,West,279,1.0,4.0,79,0.00,,,0.00,,2013-07-30 12:53:00,
2013-07-30 09:22:00,69.0,60.0,30.22,West,280,0.0,4.0,74,0.00,,,0.00,,2013-07-30 13:22:00,
2013-07-30 09:33:00,69.0,60.0,30.22,West,280,0.0,4.0,74,0.00,,,0.00,,2013-07-30 13:33:00,
2013-07-30 09:43:00,69.0,60.0,30.22,West,280,0.0,4.0,74,0.00,,,0.00,,2013-07-30 13:43:00,
2013-07-30 10:03:00,69.0,60.0,30.22,West,280,0.0,4.0,74,0.00,,,0.00,,2013-07-30 14:03:00,
2013-07-30 10:33:00,71.0,62.0,30.21,WSW,252,1.0,5.0,72,0.00,,,0.00,,2013-07-30 14:33:00,
2013-07-30 10:43:00,71.0,62.0,30.21,WSW,252,1.0,5.0,72,0.00,,,0.00,,2013-07-30 14:43:00,
2013-07-30 10:53:00,71.0,62.0,30.21,WSW,252,1.0,5.0,72,0.00,,,0.00,,2013-07-30 14:53:00,
2013-07-30 11:02:00,71.0,62.0,30.21,WSW,252,1.0,5.0,72,0.00,,,0.00,,2013-07-30 15:02:00,
2013-07-30 11:23:00,73.0,62.0,30.21,WNW,284,0.0,4.0,68,0.00,,,0.00,,2013-07-30 15:23:00,
2013-07-30 11:33:00,73.0,62.0,30.21,WNW,284,0.0,4.0,68,0.00,,,0.00,,2013-07-30 15:33:00,
2013-07-30 11:44:00,73.0,62.0,30.21,WNW,284,0.0,4.0,68,0.00,,,0.00,,2013-07-30 15:44:00,
2013-07-30 11:53:00,73.0,62.0,30.21,WNW,284,0.0,4.0,68,0.00,,,0.00,,2013-07-30 15:53:00,
2013-07-30 12:02:00,73.0,62.0,30.21,WNW,284,0.0,4.0,68,0.00,,,0.00,,2013-07-30 16:02:00,
2013-07-30 12:33:00,74.0,61.0,30.19,West,270,3.0,14.0,64,0.00,,,0.00,,2013-07-30 16:33:00,
2013-07-30 12:44:00,74.0,61.0,30.19,West,270,3.0,14.0,64,0.00,,,0.00,,2013-07-30 16:44:00,
2013-07-30 12:53:00,74.0,61.0,30.19,West,270,3.0,14.0,64,0.00,,,0.00,,2013-07-30 16:53:00,
2013-07-30 13:02:00,74.0,61.0,30.19,West,270,3.0,14.0,64,0.00,,,0.00,,2013-07-30 17:02:00,
2013-07-30 13:32:00,74.0,61.0,30.18,NW,311,1.0,6.0,64,0.00,,,0.00,,2013-07-30 17:32:00,
2013-07-30 13:43:00,74.0,61.0,30.18,NW,311,1.0,6.0,64,0.00,,,0.00,,2013-07-30 17:43:00,
2013-07-30 13:54:00,74.0,61.0,30.18,NW,311,1.0,6.0,64,0.00,,,0.00,,2013-07-30 17:54:00,
2013-07-30 14:03:00,76.0,62.0,30.17,SW,235,2.0,5.0,62,0.00,,,0.00,,2013-07-30 18:03:00,
2013-07-30 14:23:00,76.0,62.0,30.17,SW,235,2.0,5.0,62,0.00,,,0.00,,2013-07-30 18:23:00,
2013-07-30 14:33:00,76.0,62.0,30.17,SW,235,2.0,5.0,62,0.00,,,0.00,,2013-07-30 18:33:00,
2013-07-30 14:43:00,76.0,62.0,30.17,SW,235,2.0,5.0,62,0.00,,,0.00,,2013-07-30 18:43:00,
2013-07-30 14:52:00,76.0,62.0,30.17,SW,235,2.0,5.0,62,0.00,,,0.00,,2013-07-30 18:52:00,
2013-07-30 15:23:00,77.0,63.0,30.17,WSW,244,1.0,5.0,62,0.00,,,0.00,,2013-07-30 19:23:00,
2013-07-30 15:33:00,77.0,63.0,30.17,WSW,244,1.0,5.0,62,0.00,,,0.00,,2013-07-30 19:33:00,
2013-07-30 15:44:00,77.0,63.0,30.17,WSW,244,1.0,5.0,62,0.00,,,0.00,,2013-07-30 19:44:00,
2013-07-30 15:52:00,77.0,63.0,30.17,WSW,244,1.0,5.0,62,0.00,,,0.00,,2013-07-30 19:52:00,
2013-07-30 16:02:00,77.0,63.0,30.17,WSW,244,1.0,5.0,62,0.00,,,0.00,,2013-07-30 20:02:00,
2013-07-30 16:33:00,77.0,63.0,30.15,West,269,1.0,6.0,63,0.00,,,0.00,,2013-07-30 20:33:00,
2013-07-30 16:43:00,77.0,63.0,30.15,West,269,1.0,6.0,63,0.00,,,0.00,,2013-07-30 20:43:00,
2013-07-30 16:52:00,77.0,63.0,30.15,West,269,1.0,6.0,63,0.00,,,0.00,,2013-07-30 20:52:00,
2013-07-30 17:02:00,77.0,63.0,30.15,West,269,1.0,6.0,63,0.00,,,0.00,,2013-07-30 21:02:00,
2013-07-30 17:22:00,78.0,63.0,30.15,West,264,3.0,10.0,60,0.00,,,0.00,,2013-07-30 21:22:00,
2013-07-30 17:32:00,78.0,63.0,30.15,West,264,3.0,10.0,60,0.00,,,0.00,,2013-07-30 21:32:00,
2013-07-30 17:42:00,78.0,63.0,30.15,West,264,3.0,10.0,60,0.00,,,0.00,,2013-07-30 21:42:00,
2013-07-30 17:53:00,78.0,63.0,30.15,West,264,3.0,10.0,60,0.00,,,0.00,,2013-07-30 21:53:00,
2013-07-30 18:02:00,78.0,63.0,30.15,West,264,3.0,10.0,60,0.00,,,0.00,,2013-07-30 22:02:00,
2013-07-30 18:22:00,75.0,61.0,30.16,SW,223,0.0,5.0,62,0.00,,,0.00,,2013-07-30 22:22:00,
2013-07-30 18:32:00,75.0,61.0,30.16,SW,223,0.0,5.0,62,0.00,,,0.00,,2013-07-30 22:32:00,
2013-07-30 18:43:00,75.0,61.0,30.16,SW,223,0.0,5.0,62,0.00,,,0.00,,2013-07-30 22:43:00,
2013-07-30 18:53:00,75.0,61.0,30.16,SW,223,0.0,5.0,62,0.00,,,0.00,,2013-07-30 22:53:00,
2013-07-30 19:02:00,75.0,61.0,30.16,SW,223,0.0,5.0,62,0.00,,,0.00,,2013-07-30 23:02:00,
2013-07-30 19:23:00,76.0,62.0,30.16,West,280,0.0,3.0,63,0.00,,,0.00,,2013-07-30 23:23:00,
2013-07-30 19:32:00,76.0,62.0,30.16,West,280,0.0,3.0,63,0.00,,,0.00,,2013-07-30 23:32:00,
2013-07-30 19:42:00,76.0,62.0,30.16,West,280,0.0,3.0,63,0.00,,,0.00,,2013-07-30 23:42:00,
2013-07-30 19:53:00,76.0,62.0,30.16,West,280,0.0,3.0,63,0.00,,,0.00,,2013-07-30 23:53:00,
2013-07-30 20:02:00,76.0,62.0,30.16,West,280,0.0,3.0,63,0.00,,,0.00,,2013-07-31 00:02:00,
2013-07-30 20:22:00,71.0,61.0,30.15,NW,316,0.0,0.0,71,0.00,,,0.00,,2013-07-31 00:22:00,
2013-07-30 20:32:00,71.0,61.0,30.15,NW,316,0.0,0.0,71,0.00,,,0.00,,2013-07-31 00:32:00,
2013-07-30 20:43:00,71.0,61.0,30.15,NW,316,0.0,0.0,71,0.00,,,0.00,,2013-07-31 00:43:00,
2013-07-30 20:53:00,71.0,61.0,30.15,NW,316,0.0,0.0,71,0.00,,,0.00,,2013-07-31 00:53:00,
2013-07-30 21:02:00,71.0,61.0,30.15,NW,316,0.0,0.0,71,0.00,,,0.00,,2013-07-31 01:02:00,
2013-07-30 21:32:00,68.0,60.0,30.16,NW,316,0.0,0.0,75,0.00,,,0.00,,2013-07-31 01:32:00,
2013-07-30 21:43:00,68.0,60.0,30.16,NW,316,0.0,0.0,75,0.00,,,0.00,,2013-07-31 01:43:00,
2013-07-30 21:52:00,68.0,60.0,30.16,NW,316,0.0,0.0,75,0.00,,,0.00,,2013-07-31 01:52:00,
2013-07-30 22:02:00,68.0,60.0,30.16,NW,316,0.0,0.0,75,0.00,,,0.00,,2013-07-31 02:02:00,
2013-07-30 22:43:00,67.0,60.0,30.17,NW,316,0.0,0.0,79,0.00,,,0.00,,2013-07-31 02:43:00,
2013-07-30 22:53:00,67.0,60.0,30.17,NW,316,0.0,0.0,79,0.00,,,0.00,,2013-07-31 02:53:00,
2013-07-30 23:02:00,67.0,60.0,30.17,NW,316,0.0,0.0,79,0.00,,,0.00,,2013-07-31 03:02:00,
2013-07-30 23:12:00,67.0,60.0,30.17,NW,316,0.0,0.0,79,0.00,,,0.00,,2013-07-31 03:12:00,
2013-07-30 23:22:00,67.0,59.0,30.16,NW,316,0.0,0.0,76,0.00,,,0.00,,2013-07-31 03:22:00,
2013-07-30 23:32:00,67.0,59.0,30.16,NW,316,0.0,0.0,76,0.00,,,0.00,,2013-07-31 03:32:00,
2013-07-30 23:52:00,67.0,59.0,30.16,NW,316,0.0,0.0,76,0.00,,,0.00,,2013-07-31 03:52:00,